{"data":{"norad_id":43881,"epoch":"2026-05-25T01:47:58.862112Z","epoch_age_seconds":68495,"freshness":"FRESH","line1":"1 43881U 18111F   26145.07498683  .00110229  00000+0  99141-3 0  9990","line2":"2 43881  97.6124  83.8398 0006740  92.0616 268.1417 15.67855866407743","mean_motion":15.67855866,"eccentricity":0.000674,"inclination_deg":97.6124,"raan_deg":83.8398,"arg_perigee_deg":92.0616,"mean_anomaly_deg":268.1417,"bstar":0.00099141,"rev_number":40774,"period_min":91.845177304072,"perigee_km":360.49290055331,"apogee_km":369.58270018421,"semimajor_km":6743.1748003688,"source":"CELESTRAK","updated_at":"2026-05-25T13:37:55.926687Z"}}